Location: Acequia del Cap
(41.7000°N, 0.6167°E)
Time: 01:29:23
(UTC+00:00)

SL-16 R/B - Pass Details

Date: 07 August 2020
Orbit: 985 x 1007 km, 99.5° (Epoch: 22 September)

Event Time Altitude Azimuth Distance (km) Brightness Sun altitude
Exits shadow 02:13:43 51° 242° (WSW) 1,254 2.7 -24.6°
Maximum altitude 02:14:15 52° 260° (W) 1,234 2.7 -24.6°
Drops below altitude 10° 02:20:22 10° 336° (NNW) 2,789 5.2 -23.9°
Sets 02:22:56 0° 341° (NNW) 3,741 6.0 -23.6°
